Weather History for Philip, SD

Change the Weather History Date:

Monday, July 29, 2013

  Actual Average Record
Temperature  
Mean Temperature 76 °F 76 °F  
Max Temperature 89 °F 91 °F 111 °F (2006)
Min Temperature 62 °F 61 °F 41 °F (1971)
Degree Days  
Heating Degree Days 0 0  
Month to date heating degree days 3 3  
Since 1 June heating degree days 67 66  
Since 1 July heating degree days 3 3  
Cooling Degree Days 11 11  
Month to date cooling degree days 315 282  
Year to date cooling degree days 463 432  
Since 1 June cooling degree days 442 405  
Growing Degree Days 24 (Base 50)    
Moisture  
Dew Point 57 °F    
Average Humidity 61    
Maximum Humidity 87    
Minimum Humidity 34    
Precipitation  
Precipitation 0.00 in 0.05 in 0.80 in (2010)
Month to date precipitation 1.12 1.92  
Year to date precipitation 8.58 11.77  
Sea Level Pressure  
Sea Level Pressure 29.89 in    
Wind  
Wind Speed 8 mph (SE)    
Max Wind Speed 18 mph    
Max Gust Speed 23 mph    
Visibility 10 miles    
Events      
T = Trace of Precipitation, MM = Missing Value Source: NWS Daily Summary

Daily Weather History Graph

Daily Weather History Graph

Search for Another Location

Airport:

Trip Planner

Search our weather history database for the weather conditions in past years. The results will help you decide how hot, cold, wet, or windy it might be!

Date:

Astronomy

Jul. 29, 2013 Rise Set
Actual Time 5:31 AM MDT 8:13 PM MDT
Civil Twilight 4:58 AM MDT 8:46 PM MDT
Nautical Twilight 4:16 AM MDT 9:28 PM MDT
Astronomical Twilight 3:27 AM MDT 10:16 PM MDT
Moon 11:53 PM MDT (7/29) 1:34 PM MDT (7/29)
Length of Visible Light 15h 48m
Length of Day
14h 42m
Waning Gibbous, 50% of the Moon is Illuminated
Jul 29
Waning Gibbous
Aug 6
New
Aug 14
First Quarter
Aug 20
Full
Aug 28
Last Quarter

Hourly Weather History & Observations

Time (MDT) Temp. Heat Index Dew Point Humidity Pressure Visibility Wind Dir Wind Speed Gust Speed Precip Events Conditions
12:55 AM 64.0 °F - 52.0 °F 65% 29.90 in 10.0 mi SSE 6.9 mph - N/A   Partly Cloudy
1:55 AM 64.9 °F - 54.0 °F 68% 29.89 in 10.0 mi SSE 8.1 mph - N/A   Overcast
2:55 AM 64.0 °F - 54.0 °F 70% 29.88 in 10.0 mi SE 6.9 mph - N/A   Overcast
3:32 AM 64.4 °F - 55.4 °F 73% 29.91 in 10.0 mi SSE 10.4 mph - N/A   Overcast
3:55 AM 64.0 °F - 55.0 °F 73% 29.86 in 10.0 mi SE 8.1 mph - N/A   Overcast
4:09 AM 62.6 °F - 55.4 °F 77% 29.90 in 10.0 mi SE 10.4 mph - N/A   Overcast
4:55 AM 63.0 °F - 55.0 °F 75% 29.86 in 10.0 mi SE 9.2 mph - N/A   Overcast
5:55 AM 63.0 °F - 55.9 °F 78% 29.87 in 10.0 mi SSE 5.8 mph - N/A   Overcast
6:55 AM 64.0 °F - 55.9 °F 75% 29.88 in 10.0 mi SE 5.8 mph - N/A   Overcast
7:55 AM 66.9 °F - 57.0 °F 70% 29.89 in 10.0 mi South 11.5 mph - N/A   Mostly Cloudy
8:25 AM 69.8 °F - 57.2 °F 64% 29.94 in 10.0 mi South 12.7 mph - N/A   Overcast
8:41 AM 69.8 °F - 57.2 °F 64% 29.93 in 10.0 mi South 11.5 mph - N/A   Scattered Clouds
8:55 AM 71.1 °F - 57.0 °F 61% 29.88 in 10.0 mi South 11.5 mph 19.6 mph N/A   Clear
9:55 AM 73.9 °F - 57.0 °F 55% 29.88 in 10.0 mi Variable 5.8 mph - N/A   Partly Cloudy
10:55 AM 75.9 °F - 57.0 °F 52% 29.87 in 10.0 mi Variable 4.6 mph - N/A   Mostly Cloudy
11:55 AM 79.0 °F - 57.0 °F 47% 29.86 in 10.0 mi SSW 5.8 mph - N/A   Partly Cloudy
12:55 PM 84.0 °F 83.5 °F 57.9 °F 41% 29.85 in 10.0 mi SSW 11.5 mph 18.4 mph N/A   Partly Cloudy
1:55 PM 82.9 °F 82.4 °F 57.0 °F 41% 29.85 in 10.0 mi North 3.5 mph - N/A   Scattered Clouds
2:55 PM 86.0 °F 84.7 °F 55.9 °F 36% 29.84 in 10.0 mi West 5.8 mph - N/A   Partly Cloudy
3:55 PM 87.1 °F 85.7 °F 55.9 °F 35% 29.84 in 10.0 mi West 6.9 mph - N/A   Scattered Clouds
4:55 PM 86.0 °F 84.7 °F 55.9 °F 36% 29.85 in 10.0 mi North 6.9 mph - N/A   Partly Cloudy
5:55 PM 84.9 °F 84.2 °F 57.9 °F 40% 29.86 in 10.0 mi ENE 10.4 mph - N/A   Scattered Clouds
6:55 PM 82.9 °F 82.6 °F 57.9 °F 42% 29.88 in 10.0 mi East 8.1 mph - N/A   Clear
7:55 PM 78.1 °F - 62.1 °F 58% 29.91 in 10.0 mi East 15.0 mph - N/A   Clear
8:55 PM 73.0 °F - 62.1 °F 68% 29.94 in 10.0 mi East 8.1 mph - N/A   Clear
9:55 PM 69.1 °F - 61.0 °F 75% 29.98 in 10.0 mi East 10.4 mph - N/A   Clear
10:55 PM 66.0 °F - 61.0 °F 84% 29.98 in 10.0 mi ENE 9.2 mph - N/A   Clear
11:55 PM 64.0 °F - 60.1 °F 87% 30.00 in 10.0 mi NNE 4.6 mph - N/A   Clear